Zurück zum Katalog

CZ-4 DEB

AktivSSO
NORAD 26126·DEBRIS·🇨🇳 China

Gestartet Oct 14, 1999 von Taiyuan Satellite Launch Center

Loading…

Nächste Überflüge (nächste 24 Stunden)

TLE

AktuellSource: Space-Track

Epoche: Sep 14, 2026, 10:30 UTC

1 26126U 99057N   26257.43754690  .00000640  00000-0  18558-3 0  9997
2 26126  98.6215 313.3276 0092544 268.6268 218.8775 14.45544415388652

Verfolge CZ-4 DEB in Echtzeit mit AllMySat

Download on the App Store